Time,TemperatureF,DewpointF,PressureIn,WindDirection,WindDirectionDegrees,WindSpeedMPH,WindSpeedGustMPH,Humidity,HourlyPrecipIn,Conditions,Clouds,dailyrainin,SoftwareType,DateUTC
2013-02-16 00:04:00,47.3,40.8,29.17,ESE,112,10.9,10.9,78,0.00,CLR,,0.00,WeatherDisplay:10.37,2013-02-16 08:04:00,
2013-02-16 00:09:00,47.1,40.6,29.18,East,90,8.1,8.1,78,0.00,CLR,,0.00,WeatherDisplay:10.37,2013-02-16 08:09:00,
2013-02-16 00:14:00,47.1,40.9,29.18,SE,135,8.1,8.1,79,0.00,CLR,,0.00,WeatherDisplay:10.37,2013-02-16 08:14:00,
2013-02-16 00:19:00,47.1,40.9,29.18,East,90,9.2,9.2,79,0.00,CLR,,0.00,WeatherDisplay:10.37,2013-02-16 08:19:00,
2013-02-16 00:24:00,47.1,40.9,29.18,ESE,112,8.1,8.1,79,0.00,CLR,,0.00,WeatherDisplay:10.37,2013-02-16 08:24:00,
2013-02-16 00:29:00,47.1,40.9,29.18,ESE,112,6.9,7.8,79,0.00,CLR,,0.00,WeatherDisplay:10.37,2013-02-16 08:29:00,
2013-02-16 00:34:00,47.1,40.9,29.18,East,90,8.1,8.1,79,0.00,CLR,,0.00,WeatherDisplay:10.37,2013-02-16 08:34:00,
2013-02-16 00:39:00,47.1,40.9,29.19,SE,135,5.8,5.8,79,0.00,CLR,,0.00,WeatherDisplay:10.37,2013-02-16 08:39:00,
2013-02-16 00:44:00,46.9,40.1,29.19,ESE,112,4.6,4.6,77,0.00,CLR,,0.00,WeatherDisplay:10.37,2013-02-16 08:44:00,
2013-02-16 00:49:00,46.9,40.1,29.19,ESE,112,8.1,8.1,77,0.00,CLR,,0.00,WeatherDisplay:10.37,2013-02-16 08:49:00,
2013-02-16 00:54:00,46.8,39.9,29.19,ESE,112,5.8,5.8,77,0.00,CLR,,0.00,WeatherDisplay:10.37,2013-02-16 08:54:00,
2013-02-16 00:59:00,46.8,39.9,29.19,ESE,112,6.2,6.2,77,0.00,CLR,,0.00,WeatherDisplay:10.37,2013-02-16 08:59:00,
2013-02-16 01:04:00,46.6,39.8,29.19,East,90,5.8,5.8,77,0.00,CLR,,0.00,WeatherDisplay:10.37,2013-02-16 09:04:00,
2013-02-16 01:09:00,46.4,39.6,29.19,ESE,112,6.9,6.9,77,0.00,CLR,,0.00,WeatherDisplay:10.37,2013-02-16 09:09:00,
2013-02-16 01:14:00,46.4,39.6,29.19,ESE,112,6.9,6.9,77,0.00,CLR,,0.00,WeatherDisplay:10.37,2013-02-16 09:14:00,
2013-02-16 01:19:00,46.2,39.4,29.19,East,90,4.6,4.6,77,0.00,CLR,,0.00,WeatherDisplay:10.37,2013-02-16 09:19:00,
2013-02-16 01:24:00,45.9,39.4,29.19,SE,135,4.6,5.4,78,0.00,CLR,,0.00,WeatherDisplay:10.37,2013-02-16 09:24:00,
2013-02-16 01:29:00,45.7,39.5,29.19,ESE,112,5.8,5.8,79,0.00,CLR,,0.00,WeatherDisplay:10.37,2013-02-16 09:29:00,
2013-02-16 01:34:00,45.5,39.7,29.19,East,90,4.6,4.6,80,0.00,CLR,,0.00,WeatherDisplay:10.37,2013-02-16 09:34:00,
2013-02-16 01:39:00,45.3,39.8,29.18,ESE,112,5.4,5.4,81,0.00,CLR,,0.00,WeatherDisplay:10.37,2013-02-16 09:39:00,
2013-02-16 01:44:00,45.3,40.1,29.18,SSE,158,7.6,7.6,82,0.00,CLR,,0.00,WeatherDisplay:10.37,2013-02-16 09:44:00,
2013-02-16 01:49:00,45.3,40.1,29.18,ESE,112,4.6,4.7,82,0.00,CLR,,0.00,WeatherDisplay:10.37,2013-02-16 09:49:00,
2013-02-16 01:54:00,45.5,40.3,29.18,ESE,112,6.0,6.0,82,0.00,CLR,,0.00,WeatherDisplay:10.37,2013-02-16 09:54:00,
2013-02-16 01:59:00,45.7,40.2,29.18,ESE,112,6.9,6.9,81,0.00,CLR,,0.00,WeatherDisplay:10.37,2013-02-16 09:59:00,
2013-02-16 02:04:00,45.9,40.4,29.18,East,90,8.1,8.1,81,0.00,CLR,,0.00,WeatherDisplay:10.37,2013-02-16 10:04:00,
2013-02-16 02:09:00,45.9,40.4,29.18,East,90,8.1,8.1,81,0.00,CLR,,0.00,WeatherDisplay:10.37,2013-02-16 10:09:00,
2013-02-16 02:14:00,45.7,39.9,29.18,ESE,112,5.8,5.8,80,0.00,CLR,,0.00,WeatherDisplay:10.37,2013-02-16 10:14:00,
2013-02-16 02:19:00,45.7,39.9,29.18,ESE,112,6.9,6.9,80,0.00,CLR,,0.00,WeatherDisplay:10.37,2013-02-16 10:19:00,
2013-02-16 02:24:00,45.5,40.0,29.18,East,90,5.8,5.8,81,0.00,CLR,,0.00,WeatherDisplay:10.37,2013-02-16 10:24:00,
2013-02-16 02:29:00,45.3,40.1,29.18,SSE,158,8.1,8.1,82,0.00,CLR,,0.00,WeatherDisplay:10.37,2013-02-16 10:29:00,
2013-02-16 02:34:00,45.1,40.3,29.18,ESE,112,8.7,8.7,83,0.00,CLR,,0.00,WeatherDisplay:10.37,2013-02-16 10:34:00,
2013-02-16 02:39:00,45.0,40.1,29.18,ESE,112,6.9,6.9,83,0.00,CLR,,0.00,WeatherDisplay:10.37,2013-02-16 10:39:00,
2013-02-16 02:44:00,44.8,40.2,29.18,East,90,6.9,6.9,84,0.00,CLR,,0.00,WeatherDisplay:10.37,2013-02-16 10:44:00,
2013-02-16 02:49:00,44.6,40.4,29.18,ESE,112,5.8,5.8,85,0.00,CLR,,0.00,WeatherDisplay:10.37,2013-02-16 10:49:00,
2013-02-16 02:54:00,44.4,40.2,29.18,SE,135,5.8,5.8,85,0.00,CLR,,0.00,WeatherDisplay:10.37,2013-02-16 10:54:00,
2013-02-16 02:59:00,44.2,40.0,29.18,SE,135,4.7,4.7,85,0.00,CLR,,0.00,WeatherDisplay:10.37,2013-02-16 10:59:00,
2013-02-16 03:04:00,44.2,40.6,29.18,East,90,5.8,5.8,87,0.00,CLR,,0.00,WeatherDisplay:10.37,2013-02-16 11:04:00,
2013-02-16 03:09:00,44.1,40.4,29.18,ESE,112,6.9,6.9,87,0.00,CLR,,0.00,WeatherDisplay:10.37,2013-02-16 11:09:00,
2013-02-16 03:14:00,44.1,40.4,29.17,SE,135,4.6,4.6,87,0.00,CLR,,0.00,WeatherDisplay:10.37,2013-02-16 11:14:00,
2013-02-16 03:19:00,43.9,40.3,29.18,ESE,112,4.7,4.7,87,0.00,CLR,,0.00,WeatherDisplay:10.37,2013-02-16 11:19:00,
2013-02-16 03:24:00,43.7,40.4,29.17,SE,135,5.4,5.4,88,0.00,CLR,,0.00,WeatherDisplay:10.37,2013-02-16 11:24:00,
2013-02-16 03:29:00,43.5,40.2,29.17,East,90,4.6,4.6,88,0.00,CLR,,0.00,WeatherDisplay:10.37,2013-02-16 11:29:00,
2013-02-16 03:34:00,43.5,39.9,29.18,ESE,112,2.3,2.3,87,0.00,CLR,,0.00,WeatherDisplay:10.37,2013-02-16 11:34:00,
2013-02-16 03:39:00,43.2,39.6,29.17,SE,135,2.3,2.3,87,0.00,CLR,,0.00,WeatherDisplay:10.37,2013-02-16 11:39:00,
2013-02-16 03:44:00,43.0,39.1,29.18,ESE,121,1.0,2.0,86,0.00,CLR,CLR,0.00,WeatherDisplay:10.37,2013-02-16 11:44:00,
2013-02-16 03:49:00,42.8,38.9,29.18,ESE,111,0.0,1.0,86,0.00,CLR,CLR,0.00,WeatherDisplay:10.37,2013-02-16 11:49:00,
2013-02-16 03:54:00,42.8,38.9,29.18,West,270,1.4,1.4,86,0.00,CLR,,0.00,WeatherDisplay:10.37,2013-02-16 11:54:00,
2013-02-16 03:59:00,42.8,38.9,29.18,West,264,1.0,2.0,86,0.00,CLR,CLR,0.00,WeatherDisplay:10.37,2013-02-16 11:59:00,
2013-02-16 04:04:00,42.6,38.7,29.18,West,264,0.0,1.0,86,0.00,CLR,CLR,0.00,WeatherDisplay:10.37,2013-02-16 12:04:00,
2013-02-16 04:09:00,42.4,38.5,29.18,West,270,0.0,0.5,86,0.00,CLR,,0.00,WeatherDisplay:10.37,2013-02-16 12:09:00,
2013-02-16 04:14:00,42.4,38.5,29.18,WNW,288,0.0,0.0,86,0.00,CLR,CLR,0.00,WeatherDisplay:10.37,2013-02-16 12:14:00,
2013-02-16 04:19:00,42.4,38.5,29.18,NW,315,0.9,0.9,86,0.00,CLR,,0.00,WeatherDisplay:10.37,2013-02-16 12:19:00,
2013-02-16 04:24:00,42.4,38.5,29.18,NW,316,0.0,1.0,86,0.00,CLR,CLR,0.00,WeatherDisplay:10.37,2013-02-16 12:24:00,
2013-02-16 04:29:00,42.4,38.5,29.18,NW,313,0.0,0.0,86,0.00,CLR,CLR,0.00,WeatherDisplay:10.37,2013-02-16 12:29:00,
2013-02-16 04:34:00,42.6,39.0,29.18,WNW,292,2.3,2.3,87,0.00,CLR,,0.00,WeatherDisplay:10.37,2013-02-16 12:34:00,
2013-02-16 04:39:00,42.6,39.0,29.18,WNW,295,1.0,2.0,87,0.00,CLR,CLR,0.00,WeatherDisplay:10.37,2013-02-16 12:39:00,
2013-02-16 04:44:00,42.6,39.0,29.18,WNW,299,1.0,1.0,87,0.00,CLR,CLR,0.00,WeatherDisplay:10.37,2013-02-16 12:44:00,
2013-02-16 04:49:00,42.6,38.7,29.18,NW,315,0.0,0.0,86,0.00,CLR,,0.00,WeatherDisplay:10.37,2013-02-16 12:49:00,
2013-02-16 04:54:00,42.6,38.7,29.18,NW,315,0.0,0.0,86,0.00,CLR,,0.00,WeatherDisplay:10.37,2013-02-16 12:54:00,
2013-02-16 04:59:00,42.6,38.7,29.18,NW,315,0.0,0.0,86,0.00,CLR,CLR,0.00,WeatherDisplay:10.37,2013-02-16 12:59:00,
2013-02-16 05:04:00,42.8,39.2,29.19,NNE,22,0.2,0.2,87,0.00,CLR,,0.00,WeatherDisplay:10.37,2013-02-16 13:04:00,
2013-02-16 05:09:00,42.7,38.8,29.18,North,2,0.0,0.0,86,0.00,CLR,CLR,0.00,WeatherDisplay:10.37,2013-02-16 13:09:00,
2013-02-16 05:14:00,42.8,39.2,29.18,NNW,342,0.0,1.0,87,0.00,CLR,CLR,0.00,WeatherDisplay:10.37,2013-02-16 13:14:00,
2013-02-16 05:19:00,42.8,39.2,29.18,WNW,292,0.0,0.0,87,0.00,CLR,,0.00,WeatherDisplay:10.37,2013-02-16 13:19:00,
2013-02-16 05:24:00,42.8,39.2,29.18,WNW,288,0.0,0.0,87,0.00,CLR,CLR,0.00,WeatherDisplay:10.37,2013-02-16 13:24:00,
2013-02-16 05:29:00,42.8,39.2,29.19,SE,135,0.2,0.2,87,0.00,CLR,,0.00,WeatherDisplay:10.37,2013-02-16 13:29:00,
2013-02-16 05:34:00,42.8,39.2,29.19,SSW,202,0.0,0.0,87,0.00,CLR,,0.00,WeatherDisplay:10.37,2013-02-16 13:34:00,
2013-02-16 05:39:00,43.0,39.4,29.19,SSW,212,0.0,1.0,87,0.00,CLR,CLR,0.00,WeatherDisplay:10.37,2013-02-16 13:39:00,
2013-02-16 05:44:00,43.2,39.6,29.19,WSW,248,0.0,0.0,87,0.00,CLR,,0.00,WeatherDisplay:10.37,2013-02-16 13:44:00,
2013-02-16 05:49:00,43.2,39.6,29.19,NW,315,0.5,0.5,87,0.00,CLR,,0.00,WeatherDisplay:10.37,2013-02-16 13:49:00,
2013-02-16 05:54:00,43.2,39.8,29.19,WNW,292,0.0,1.0,88,0.00,CLR,CLR,0.00,WeatherDisplay:10.37,2013-02-16 13:54:00,
2013-02-16 05:59:00,43.2,39.8,29.19,West,270,0.0,0.0,88,0.00,CLR,,0.00,WeatherDisplay:10.37,2013-02-16 13:59:00,
2013-02-16 06:04:00,43.3,40.0,29.19,West,267,0.0,0.0,88,0.00,CLR,CLR,0.00,WeatherDisplay:10.37,2013-02-16 14:04:00,
2013-02-16 06:09:00,43.2,39.8,29.19,NW,315,0.0,0.0,88,0.00,CLR,,0.00,WeatherDisplay:10.37,2013-02-16 14:09:00,
2013-02-16 06:14:00,43.3,40.0,29.19,SSW,202,0.0,0.0,88,0.00,CLR,,0.00,WeatherDisplay:10.37,2013-02-16 14:14:00,
2013-02-16 06:19:00,43.3,40.0,29.19,WSW,242,0.0,1.0,88,0.00,CLR,CLR,0.00,WeatherDisplay:10.37,2013-02-16 14:19:00,
2013-02-16 06:24:00,43.3,40.0,29.19,West,261,0.0,1.0,88,0.00,CLR,CLR,0.00,WeatherDisplay:10.37,2013-02-16 14:24:00,
2013-02-16 06:29:00,43.3,40.0,29.19,SW,225,0.0,0.0,88,0.00,CLR,,0.00,WeatherDisplay:10.37,2013-02-16 14:29:00,
2013-02-16 06:34:00,43.3,40.0,29.19,SW,225,0.0,1.0,88,0.00,CLR,CLR,0.00,WeatherDisplay:10.37,2013-02-16 14:34:00,
2013-02-16 06:39:00,43.2,39.8,29.19,NW,315,1.2,1.2,88,0.00,CLR,,0.00,WeatherDisplay:10.37,2013-02-16 14:39:00,
2013-02-16 06:44:00,43.2,39.8,29.19,NW,315,0.0,0.0,88,0.00,CLR,,0.00,WeatherDisplay:10.37,2013-02-16 14:44:00,
2013-02-16 06:49:00,43.2,39.8,29.19,WNW,295,0.0,0.0,88,0.00,CLR,CLR,0.00,WeatherDisplay:10.37,2013-02-16 14:49:00,
2013-02-16 06:54:00,43.2,39.8,29.19,WSW,248,0.0,0.0,88,0.00,CLR,,0.00,WeatherDisplay:10.37,2013-02-16 14:54:00,
2013-02-16 06:59:00,43.2,39.8,29.19,WSW,248,0.0,0.0,88,0.00,CLR,CLR,0.00,WeatherDisplay:10.37,2013-02-16 14:59:00,
2013-02-16 07:04:00,43.2,39.8,29.19,WSW,248,0.0,0.0,88,0.00,CLR,,0.00,WeatherDisplay:10.37,2013-02-16 15:04:00,
2013-02-16 07:09:00,43.3,40.0,29.19,WSW,248,0.0,0.0,88,0.00,CLR,,0.00,WeatherDisplay:10.37,2013-02-16 15:09:00,
2013-02-16 07:14:00,43.3,40.0,29.19,West,268,0.0,1.0,88,0.00,CLR,CLR,0.00,WeatherDisplay:10.37,2013-02-16 15:14:00,
2013-02-16 07:19:00,43.3,40.0,29.19,NW,315,0.0,0.0,88,0.00,CLR,,0.00,WeatherDisplay:10.37,2013-02-16 15:19:00,
2013-02-16 07:24:00,43.3,40.0,29.20,NW,315,0.0,0.0,88,0.00,CLR,,0.00,WeatherDisplay:10.37,2013-02-16 15:24:00,
2013-02-16 07:29:00,43.3,40.0,29.20,NW,315,0.0,0.0,88,0.00,CLR,CLR,0.00,WeatherDisplay:10.37,2013-02-16 15:29:00,
2013-02-16 07:34:00,43.3,40.0,29.20,NW,315,0.0,0.0,88,0.00,CLR,,0.00,WeatherDisplay:10.37,2013-02-16 15:34:00,
2013-02-16 07:39:00,43.4,40.4,29.20,West,268,1.0,2.0,89,0.00,CLR,CLR,0.00,WeatherDisplay:10.37,2013-02-16 15:39:00,
2013-02-16 07:44:00,43.3,40.0,29.20,SSE,156,1.0,2.0,88,0.00,CLR,CLR,0.00,WeatherDisplay:10.37,2013-02-16 15:44:00,
2013-02-16 07:49:00,43.2,39.6,29.20,East,90,2.3,2.3,87,0.00,CLR,,0.00,WeatherDisplay:10.37,2013-02-16 15:49:00,
2013-02-16 07:54:00,43.0,39.4,29.20,SE,135,1.2,1.2,87,0.00,CLR,,0.00,WeatherDisplay:10.37,2013-02-16 15:54:00,
2013-02-16 07:59:00,42.8,39.2,29.21,SE,145,2.0,3.0,87,0.00,CLR,CLR,0.00,WeatherDisplay:10.37,2013-02-16 15:59:00,
2013-02-16 08:04:00,42.8,39.2,29.21,SSE,158,2.3,2.3,87,0.00,CLR,,0.00,WeatherDisplay:10.37,2013-02-16 16:04:00,
2013-02-16 08:09:00,42.4,38.8,29.21,SSE,158,1.8,1.8,87,0.00,CLR,,0.00,WeatherDisplay:10.37,2013-02-16 16:09:00,
2013-02-16 08:14:00,42.4,38.8,29.21,SE,135,2.3,2.3,87,0.00,CLR,,0.00,WeatherDisplay:10.37,2013-02-16 16:14:00,
2013-02-16 08:19:00,42.4,38.8,29.21,ESE,112,4.6,4.6,87,0.00,CLR,,0.00,WeatherDisplay:10.37,2013-02-16 16:19:00,
2013-02-16 08:24:00,42.1,38.8,29.21,SE,129,3.0,4.0,88,0.00,CLR,CLR,0.00,WeatherDisplay:10.37,2013-02-16 16:24:00,
2013-02-16 08:29:00,41.8,38.6,29.21,SE,129,2.0,4.0,88,0.00,CLR,CLR,0.00,WeatherDisplay:10.37,2013-02-16 16:29:00,
2013-02-16 08:34:00,41.7,38.7,29.21,SE,124,2.0,5.0,89,0.00,CLR,CLR,0.00,WeatherDisplay:10.37,2013-02-16 16:34:00,
2013-02-16 08:39:00,41.7,38.7,29.21,ESE,121,1.0,2.0,89,0.00,CLR,CLR,0.00,WeatherDisplay:10.37,2013-02-16 16:39:00,
2013-02-16 08:44:00,41.7,38.7,29.21,ESE,112,2.3,2.3,89,0.00,CLR,,0.00,WeatherDisplay:10.37,2013-02-16 16:44:00,
2013-02-16 08:49:00,41.9,38.9,29.21,East,100,1.0,2.0,89,0.00,CLR,CLR,0.00,WeatherDisplay:10.37,2013-02-16 16:49:00,
2013-02-16 08:54:00,42.1,39.1,29.21,ESE,115,2.0,3.0,89,0.00,CLR,CLR,0.00,WeatherDisplay:10.37,2013-02-16 16:54:00,
2013-02-16 08:59:00,42.1,39.3,29.21,ESE,116,0.0,5.0,90,0.00,CLR,CLR,0.00,WeatherDisplay:10.37,2013-02-16 16:59:00,
2013-02-16 09:04:00,42.0,39.0,29.21,ESE,107,0.0,1.0,89,0.00,CLR,CLR,0.00,WeatherDisplay:10.37,2013-02-16 17:04:00,
2013-02-16 09:09:00,42.1,39.1,29.22,ESE,122,1.0,2.0,89,0.00,CLR,CLR,0.00,WeatherDisplay:10.37,2013-02-16 17:09:00,
2013-02-16 09:14:00,42.1,39.1,29.22,SE,135,2.3,2.3,89,0.00,CLR,,0.00,WeatherDisplay:10.37,2013-02-16 17:14:00,
2013-02-16 09:19:00,42.1,39.1,29.21,SE,127,2.0,3.0,89,0.00,CLR,CLR,0.00,WeatherDisplay:10.37,2013-02-16 17:19:00,
2013-02-16 09:24:00,42.1,39.1,29.22,SE,127,2.0,2.0,89,0.00,CLR,CLR,0.00,WeatherDisplay:10.37,2013-02-16 17:24:00,
2013-02-16 09:29:00,42.3,39.5,29.22,ESE,112,2.3,2.3,90,0.00,CLR,,0.00,WeatherDisplay:10.37,2013-02-16 17:29:00,
2013-02-16 09:34:00,42.9,40.2,29.22,ESE,123,2.0,2.0,90,0.00,CLR,CLR,0.00,WeatherDisplay:10.37,2013-02-16 17:34:00,
2013-02-16 09:39:00,43.9,41.1,29.22,SE,135,1.2,1.2,90,0.00,CLR,,0.00,WeatherDisplay:10.37,2013-02-16 17:39:00,
2013-02-16 09:44:00,44.3,41.2,29.22,SE,142,1.0,2.0,89,0.00,CLR,CLR,0.00,WeatherDisplay:10.37,2013-02-16 17:44:00,
2013-02-16 09:49:00,44.2,40.9,29.22,SSE,157,1.0,2.0,88,0.00,CLR,CLR,0.00,WeatherDisplay:10.37,2013-02-16 17:49:00,
2013-02-16 09:54:00,44.1,41.0,29.22,SSE,158,1.2,1.2,89,0.00,CLR,,0.00,WeatherDisplay:10.37,2013-02-16 17:54:00,
2013-02-16 09:59:00,43.9,40.6,29.22,SE,135,1.2,1.2,88,0.00,CLR,,0.00,WeatherDisplay:10.37,2013-02-16 17:59:00,
2013-02-16 10:04:00,43.5,40.5,29.22,SE,142,2.0,2.0,89,0.00,CLR,CLR,0.00,WeatherDisplay:10.37,2013-02-16 18:04:00,
2013-02-16 10:09:00,43.5,40.2,29.22,SE,135,2.3,2.3,88,0.00,CLR,,0.00,WeatherDisplay:10.37,2013-02-16 18:09:00,
2013-02-16 10:14:00,43.4,40.1,29.22,ESE,114,1.0,1.0,88,0.00,CLR,CLR,0.00,WeatherDisplay:10.37,2013-02-16 18:14:00,
2013-02-16 10:19:00,43.4,40.1,29.21,ESE,116,0.0,1.0,88,0.00,CLR,CLR,0.00,WeatherDisplay:10.37,2013-02-16 18:19:00,
2013-02-16 10:24:00,43.5,40.2,29.22,ESE,112,1.2,1.2,88,0.00,CLR,,0.00,WeatherDisplay:10.37,2013-02-16 18:24:00,
2013-02-16 10:29:00,43.5,40.2,29.22,SE,141,0.0,1.0,88,0.00,CLR,CLR,0.00,WeatherDisplay:10.37,2013-02-16 18:29:00,
2013-02-16 10:34:00,43.7,40.4,29.21,SE,135,1.6,1.6,88,0.00,CLR,,0.00,WeatherDisplay:10.37,2013-02-16 18:34:00,
2013-02-16 10:39:00,44.1,41.0,29.21,SE,135,1.8,1.8,89,0.00,CLR,,0.00,WeatherDisplay:10.37,2013-02-16 18:39:00,
2013-02-16 10:44:00,44.2,41.2,29.21,ESE,112,2.3,2.3,89,0.00,CLR,,0.00,WeatherDisplay:10.37,2013-02-16 18:44:00,
2013-02-16 10:49:00,44.2,40.9,29.21,SE,135,1.8,1.8,88,0.00,CLR,,0.00,WeatherDisplay:10.37,2013-02-16 18:49:00,
2013-02-16 10:54:00,44.4,41.1,29.21,SE,135,2.3,2.3,88,0.00,CLR,,0.00,WeatherDisplay:10.37,2013-02-16 18:54:00,
2013-02-16 10:59:00,44.4,41.1,29.21,SE,135,2.0,2.0,88,0.00,CLR,CLR,0.00,WeatherDisplay:10.37,2013-02-16 18:59:00,
2013-02-16 11:04:00,44.2,40.9,29.21,ESE,112,2.3,2.3,88,0.00,CLR,,0.00,WeatherDisplay:10.37,2013-02-16 19:04:00,
2013-02-16 11:09:00,44.2,40.9,29.21,SE,141,1.0,2.0,88,0.00,CLR,CLR,0.00,WeatherDisplay:10.37,2013-02-16 19:09:00,
2013-02-16 11:14:00,44.2,40.9,29.21,SE,146,1.0,2.0,88,0.00,CLR,CLR,0.00,WeatherDisplay:10.37,2013-02-16 19:14:00,
2013-02-16 11:19:00,44.2,40.9,29.21,SE,135,1.2,1.2,88,0.00,CLR,,0.00,WeatherDisplay:10.37,2013-02-16 19:19:00,
2013-02-16 11:24:00,44.2,41.2,29.21,SE,135,2.0,3.0,89,0.00,CLR,CLR,0.00,WeatherDisplay:10.37,2013-02-16 19:24:00,
2013-02-16 11:29:00,44.2,41.2,29.21,SE,142,1.0,2.0,89,0.00,CLR,CLR,0.00,WeatherDisplay:10.37,2013-02-16 19:29:00,
2013-02-16 11:34:00,44.4,41.4,29.21,SE,135,3.5,3.5,89,0.00,CLR,,0.00,WeatherDisplay:10.37,2013-02-16 19:34:00,
2013-02-16 11:39:00,45.0,42.2,29.21,ESE,123,1.0,2.0,90,0.00,CLR,CLR,0.00,WeatherDisplay:10.37,2013-02-16 19:39:00,
2013-02-16 11:44:00,45.6,42.8,29.21,SE,125,1.0,2.0,90,0.01,RA,RA,0.01,WeatherDisplay:10.37,2013-02-16 19:44:00,
2013-02-16 11:49:00,46.0,43.0,29.21,South,180,2.6,2.6,89,0.01,RA,,0.01,WeatherDisplay:10.37,2013-02-16 19:49:00,
2013-02-16 11:54:00,46.0,42.7,29.21,SSE,148,1.0,2.0,88,0.00,,,0.01,WeatherDisplay:10.37,2013-02-16 19:54:00,
2013-02-16 11:59:00,45.9,42.5,29.21,ESE,112,2.3,2.9,88,0.01,CLR,,0.01,WeatherDisplay:10.37,2013-02-16 19:59:00,
2013-02-16 12:04:00,45.6,42.2,29.21,SE,138,2.0,3.0,88,0.00,CLR,CLR,0.01,WeatherDisplay:10.37,2013-02-16 20:04:00,
2013-02-16 12:09:00,45.4,42.1,29.21,SSE,149,2.0,3.0,88,0.00,CLR,CLR,0.01,WeatherDisplay:10.37,2013-02-16 20:09:00,
2013-02-16 12:14:00,45.7,42.6,29.21,SSW,202,2.3,2.3,89,0.01,CLR,,0.01,WeatherDisplay:10.37,2013-02-16 20:14:00,
2013-02-16 12:19:00,45.7,42.3,29.21,WNW,292,2.3,2.3,88,0.03,RA,,0.03,WeatherDisplay:10.37,2013-02-16 20:19:00,
2013-02-16 12:24:00,45.2,41.8,29.21,WSW,252,3.0,5.0,88,0.00,RA,RA,0.05,WeatherDisplay:10.37,2013-02-16 20:24:00,
2013-02-16 12:29:00,44.4,41.1,29.21,SW,225,3.5,3.5,88,0.06,RA,,0.07,WeatherDisplay:10.37,2013-02-16 20:29:00,
2013-02-16 12:34:00,44.2,40.9,29.21,WNW,294,0.0,2.0,88,0.00,RA,RA,0.08,WeatherDisplay:10.37,2013-02-16 20:34:00,
2013-02-16 12:39:00,44.6,41.6,29.20,WSW,248,1.2,0.0,89,0.08,RA,,0.08,WeatherDisplay:10.37,2013-02-16 20:39:00,
2013-02-16 12:44:00,45.1,42.1,29.20,WSW,248,1.2,1.2,89,0.08,,,0.08,WeatherDisplay:10.37,2013-02-16 20:44:00,
2013-02-16 12:49:00,46.1,43.0,29.20,West,277,1.0,2.0,89,0.00,CLR,CLR,0.08,WeatherDisplay:10.37,2013-02-16 20:49:00,
2013-02-16 12:54:00,46.9,43.6,29.20,WNW,292,1.2,1.2,88,0.07,CLR,,0.08,WeatherDisplay:10.37,2013-02-16 20:54:00,
2013-02-16 12:59:00,47.1,43.4,29.20,West,270,1.6,1.6,87,0.07,CLR,,0.08,WeatherDisplay:10.37,2013-02-16 20:59:00,
2013-02-16 13:04:00,47.2,43.5,29.20,West,274,1.0,2.0,87,0.00,CLR,CLR,0.08,WeatherDisplay:10.37,2013-02-16 21:04:00,
2013-02-16 13:09:00,47.6,43.9,29.19,West,268,1.0,2.0,87,0.00,CLR,CLR,0.08,WeatherDisplay:10.37,2013-02-16 21:09:00,
2013-02-16 13:14:00,47.7,44.0,29.19,West,272,1.0,2.0,87,0.00,CLR,CLR,0.08,WeatherDisplay:10.37,2013-02-16 21:14:00,
2013-02-16 13:19:00,47.3,43.3,29.19,WSW,248,1.2,1.2,86,0.05,CLR,,0.08,WeatherDisplay:10.37,2013-02-16 21:19:00,
2013-02-16 13:24:00,47.3,43.3,29.19,WSW,248,2.3,2.3,86,0.03,CLR,,0.08,WeatherDisplay:10.37,2013-02-16 21:24:00,
2013-02-16 13:29:00,47.6,43.6,29.19,West,262,1.0,2.0,86,0.00,CLR,CLR,0.08,WeatherDisplay:10.37,2013-02-16 21:29:00,
2013-02-16 13:34:00,47.9,43.9,29.19,West,260,1.0,2.0,86,0.00,CLR,CLR,0.08,WeatherDisplay:10.37,2013-02-16 21:34:00,
2013-02-16 13:39:00,48.6,44.6,29.19,WSW,248,2.3,2.3,86,0.00,CLR,,0.08,WeatherDisplay:10.37,2013-02-16 21:39:00,
2013-02-16 13:44:00,48.6,44.3,29.19,West,262,1.0,3.0,85,0.00,CLR,CLR,0.08,WeatherDisplay:10.37,2013-02-16 21:44:00,
2013-02-16 13:49:00,48.6,44.3,29.18,WSW,249,1.0,2.0,85,0.00,CLR,CLR,0.08,WeatherDisplay:10.37,2013-02-16 21:49:00,
2013-02-16 13:54:00,48.0,43.7,29.18,WSW,248,1.2,1.2,85,0.00,CLR,,0.08,WeatherDisplay:10.37,2013-02-16 21:54:00,
2013-02-16 13:59:00,48.0,43.4,29.18,WNW,290,1.0,2.0,84,0.00,CLR,CLR,0.08,WeatherDisplay:10.37,2013-02-16 21:59:00,
2013-02-16 14:04:00,48.4,44.1,29.18,WNW,292,2.4,2.4,85,0.00,CLR,,0.08,WeatherDisplay:10.37,2013-02-16 22:04:00,
2013-02-16 14:09:00,48.4,43.8,29.18,West,272,1.0,2.0,84,0.00,CLR,CLR,0.08,WeatherDisplay:10.37,2013-02-16 22:09:00,
2013-02-16 14:14:00,48.7,43.7,29.18,West,275,1.0,2.0,83,0.00,CLR,CLR,0.08,WeatherDisplay:10.37,2013-02-16 22:14:00,
2013-02-16 14:19:00,49.3,44.3,29.18,West,266,3.0,5.0,83,0.00,CLR,CLR,0.08,WeatherDisplay:10.37,2013-02-16 22:19:00,
2013-02-16 14:24:00,50.4,45.7,29.18,NE,45,4.6,4.6,84,0.00,CLR,,0.08,WeatherDisplay:10.37,2013-02-16 22:24:00,
2013-02-16 14:29:00,51.7,47.3,29.18,WSW,240,1.0,2.0,85,0.00,CLR,CLR,0.08,WeatherDisplay:10.37,2013-02-16 22:29:00,
2013-02-16 14:34:00,52.7,47.4,29.18,WSW,248,2.3,2.3,82,0.00,CLR,,0.08,WeatherDisplay:10.37,2013-02-16 22:34:00,
2013-02-16 14:39:00,52.9,47.2,29.18,WSW,241,1.0,2.0,81,0.00,CLR,CLR,0.08,WeatherDisplay:10.37,2013-02-16 22:39:00,
2013-02-16 14:44:00,52.7,45.7,29.18,WSW,248,1.2,1.2,77,0.00,CLR,,0.08,WeatherDisplay:10.37,2013-02-16 22:44:00,
2013-02-16 14:49:00,51.6,44.6,29.18,WSW,248,1.2,1.2,77,0.00,CLR,,0.08,WeatherDisplay:10.37,2013-02-16 22:49:00,
2013-02-16 14:54:00,51.9,45.2,29.18,SW,231,1.0,2.0,78,0.00,CLR,CLR,0.08,WeatherDisplay:10.37,2013-02-16 22:54:00,
2013-02-16 14:59:00,52.9,46.2,29.18,West,270,2.3,2.3,78,0.00,CLR,,0.08,WeatherDisplay:10.37,2013-02-16 22:59:00,
2013-02-16 15:04:00,52.9,45.9,29.18,SW,223,1.0,2.0,77,0.00,CLR,CLR,0.08,WeatherDisplay:10.37,2013-02-16 23:04:00,
2013-02-16 15:09:00,52.0,44.3,29.18,West,269,2.0,2.0,75,0.00,CLR,CLR,0.08,WeatherDisplay:10.37,2013-02-16 23:09:00,
2013-02-16 15:14:00,50.7,42.4,29.19,West,271,1.0,4.0,73,0.00,CLR,CLR,0.08,WeatherDisplay:10.37,2013-02-16 23:14:00,
2013-02-16 15:19:00,49.8,41.2,29.19,WNW,292,6.9,6.9,72,0.00,CLR,,0.08,WeatherDisplay:10.37,2013-02-16 23:19:00,
2013-02-16 15:24:00,49.4,41.8,29.19,WSW,258,1.0,4.0,75,0.00,CLR,CLR,0.08,WeatherDisplay:10.37,2013-02-16 23:24:00,
2013-02-16 15:29:00,49.8,42.2,29.19,West,270,2.3,2.3,75,0.00,CLR,,0.08,WeatherDisplay:10.37,2013-02-16 23:29:00,
2013-02-16 15:34:00,49.8,41.9,29.19,West,265,2.0,3.0,74,0.00,CLR,CLR,0.08,WeatherDisplay:10.37,2013-02-16 23:34:00,
2013-02-16 15:39:00,50.6,42.2,29.19,West,267,2.0,5.0,73,0.00,CLR,CLR,0.08,WeatherDisplay:10.37,2013-02-16 23:39:00,
2013-02-16 15:44:00,51.6,41.8,29.19,WSW,248,3.5,6.2,69,0.00,CLR,,0.08,WeatherDisplay:10.37,2013-02-16 23:44:00,
2013-02-16 15:49:00,52.9,43.0,29.19,WNW,292,3.5,3.5,69,0.00,CLR,,0.08,WeatherDisplay:10.37,2013-02-16 23:49:00,
2013-02-16 15:54:00,53.4,42.3,29.19,WNW,292,4.6,4.6,66,0.00,CLR,,0.08,WeatherDisplay:10.37,2013-02-16 23:54:00,
2013-02-16 15:59:00,51.8,41.2,29.19,WSW,248,2.4,2.4,67,0.00,CLR,,0.08,WeatherDisplay:10.37,2013-02-16 23:59:00,
2013-02-16 16:04:00,50.2,39.3,29.19,WSW,246,5.0,8.0,66,0.00,CLR,CLR,0.08,WeatherDisplay:10.37,2013-02-17 00:04:00,
2013-02-16 16:09:00,49.8,40.4,29.20,West,270,4.6,4.6,70,0.00,CLR,,0.08,WeatherDisplay:10.37,2013-02-17 00:09:00,
2013-02-16 16:14:00,50.2,41.1,29.20,WSW,248,1.2,1.2,71,0.00,CLR,,0.08,WeatherDisplay:10.37,2013-02-17 00:14:00,
2013-02-16 16:19:00,51.2,41.4,29.20,West,265,1.0,6.0,69,0.00,CLR,CLR,0.08,WeatherDisplay:10.37,2013-02-17 00:19:00,
2013-02-16 16:24:00,51.3,41.1,29.20,WNW,292,3.5,3.5,68,0.00,CLR,,0.08,WeatherDisplay:10.37,2013-02-17 00:24:00,
2013-02-16 16:29:00,50.4,40.6,29.20,WSW,252,1.0,3.0,69,0.00,CLR,CLR,0.08,WeatherDisplay:10.37,2013-02-17 00:29:00,
2013-02-16 16:34:00,50.3,41.2,29.20,WSW,237,1.0,5.0,71,0.00,CLR,CLR,0.08,WeatherDisplay:10.37,2013-02-17 00:34:00,
2013-02-16 16:39:00,50.2,40.0,29.20,WSW,248,2.9,2.9,68,0.00,CLR,,0.08,WeatherDisplay:10.37,2013-02-17 00:39:00,
2013-02-16 16:44:00,49.3,39.6,29.20,SW,220,1.0,4.0,69,0.00,CLR,CLR,0.08,WeatherDisplay:10.37,2013-02-17 00:44:00,
2013-02-16 16:49:00,48.3,38.9,29.20,WSW,257,2.0,5.0,70,0.00,CLR,CLR,0.08,WeatherDisplay:10.37,2013-02-17 00:49:00,
2013-02-16 16:54:00,47.5,38.9,29.20,WSW,248,2.3,2.3,72,0.00,CLR,,0.08,WeatherDisplay:10.37,2013-02-17 00:54:00,
2013-02-16 16:59:00,46.8,38.6,29.20,West,262,1.0,3.0,73,0.00,CLR,CLR,0.08,WeatherDisplay:10.37,2013-02-17 00:59:00,
2013-02-16 17:04:00,46.4,38.5,29.20,West,260,1.0,6.0,74,0.00,CLR,CLR,0.08,WeatherDisplay:10.37,2013-02-17 01:04:00,
2013-02-16 17:09:00,45.7,38.2,29.20,NE,45,5.8,5.8,75,0.00,CLR,,0.08,WeatherDisplay:10.37,2013-02-17 01:09:00,
2013-02-16 17:14:00,45.0,37.6,29.20,WSW,243,1.0,3.0,75,0.00,CLR,CLR,0.08,WeatherDisplay:10.37,2013-02-17 01:14:00,
2013-02-16 17:19:00,44.6,37.5,29.20,SW,225,2.3,2.3,76,0.00,CLR,,0.08,WeatherDisplay:10.37,2013-02-17 01:19:00,
2013-02-16 17:24:00,44.2,37.5,29.20,WSW,248,4.6,4.6,77,0.00,CLR,,0.08,WeatherDisplay:10.37,2013-02-17 01:24:00,
2013-02-16 17:29:00,43.8,37.1,29.20,WSW,248,1.0,5.0,77,0.00,CLR,CLR,0.08,WeatherDisplay:10.37,2013-02-17 01:29:00,
2013-02-16 17:34:00,43.3,36.9,29.20,West,270,3.5,4.9,78,0.00,CLR,,0.08,WeatherDisplay:10.37,2013-02-17 01:34:00,
2013-02-16 17:39:00,43.1,36.7,29.20,NW,316,1.0,5.0,78,0.00,CLR,CLR,0.08,WeatherDisplay:10.37,2013-02-17 01:39:00,
2013-02-16 17:44:00,42.8,36.7,29.20,NW,307,1.0,3.0,79,0.00,CLR,CLR,0.08,WeatherDisplay:10.37,2013-02-17 01:44:00,
2013-02-16 17:49:00,42.6,36.6,29.20,NW,315,2.3,2.3,79,0.00,CLR,,0.08,WeatherDisplay:10.37,2013-02-17 01:49:00,
2013-02-16 17:54:00,42.4,36.7,29.20,West,281,2.0,4.0,80,0.00,CLR,CLR,0.08,WeatherDisplay:10.37,2013-02-17 01:54:00,
2013-02-16 17:59:00,42.1,36.4,29.20,SW,225,1.8,1.8,80,0.00,CLR,,0.08,WeatherDisplay:10.37,2013-02-17 01:59:00,
2013-02-16 18:04:00,41.7,36.0,29.20,WSW,248,2.3,2.3,80,0.00,CLR,,0.08,WeatherDisplay:10.37,2013-02-17 02:04:00,
2013-02-16 18:09:00,41.4,35.7,29.20,West,269,1.0,2.0,80,0.00,CLR,CLR,0.08,WeatherDisplay:10.37,2013-02-17 02:09:00,
2013-02-16 18:14:00,41.0,35.3,29.20,West,278,1.0,3.0,80,0.00,CLR,CLR,0.08,WeatherDisplay:10.37,2013-02-17 02:14:00,
2013-02-16 18:19:00,40.5,34.8,29.20,West,270,0.7,0.7,80,0.00,CLR,,0.08,WeatherDisplay:10.37,2013-02-17 02:19:00,
2013-02-16 18:24:00,40.1,34.4,29.20,North,0,0.0,0.0,80,0.00,CLR,,0.08,WeatherDisplay:10.37,2013-02-17 02:24:00,
2013-02-16 18:29:00,39.9,34.2,29.20,SE,135,0.5,0.5,80,0.00,CLR,,0.08,WeatherDisplay:10.37,2013-02-17 02:29:00,
2013-02-16 18:34:00,39.6,33.9,29.20,South,180,1.2,0.0,80,0.00,CLR,,0.08,WeatherDisplay:10.37,2013-02-17 02:34:00,
2013-02-16 18:39:00,39.4,33.7,29.20,South,181,0.0,1.0,80,0.00,CLR,CLR,0.08,WeatherDisplay:10.37,2013-02-17 02:39:00,
2013-02-16 18:44:00,39.2,33.9,29.20,SW,225,1.2,1.2,81,0.00,CLR,,0.08,WeatherDisplay:10.37,2013-02-17 02:44:00,
2013-02-16 18:49:00,39.2,33.9,29.20,South,180,0.0,1.0,81,0.00,CLR,CLR,0.08,WeatherDisplay:10.37,2013-02-17 02:49:00,
2013-02-16 18:54:00,39.2,38.9,29.21,NE,45,0.0,0.0,99,0.00,CLR,,0.08,WeatherDisplay:10.37,2013-02-17 02:54:00,
2013-02-16 18:59:00,39.4,34.3,29.21,WSW,248,1.2,1.2,82,0.00,CLR,,0.08,WeatherDisplay:10.37,2013-02-17 02:59:00,
2013-02-16 19:04:00,39.5,34.4,29.21,WNW,287,0.0,1.0,82,0.00,CLR,CLR,0.08,WeatherDisplay:10.37,2013-02-17 03:04:00,
2013-02-16 19:09:00,39.6,34.8,29.21,West,270,0.0,0.0,83,0.00,CLR,,0.08,WeatherDisplay:10.37,2013-02-17 03:09:00,
2013-02-16 19:14:00,39.7,35.0,29.21,SW,225,0.0,0.0,83,0.00,CLR,,0.08,WeatherDisplay:10.37,2013-02-17 03:14:00,
2013-02-16 19:19:00,39.6,34.8,29.21,West,270,1.2,1.2,83,0.00,CLR,,0.08,WeatherDisplay:10.37,2013-02-17 03:19:00,
2013-02-16 19:24:00,39.7,35.0,29.21,WNW,292,0.0,0.0,83,0.00,CLR,,0.08,WeatherDisplay:10.37,2013-02-17 03:24:00,
2013-02-16 19:29:00,39.7,35.0,29.21,West,270,0.0,0.0,83,0.00,CLR,,0.08,WeatherDisplay:10.37,2013-02-17 03:29:00,
2013-02-16 19:34:00,39.7,35.0,29.21,ENE,68,0.0,0.0,83,0.00,CLR,,0.08,WeatherDisplay:10.37,2013-02-17 03:34:00,
2013-02-16 19:39:00,39.9,35.2,29.21,West,270,0.5,0.5,83,0.00,CLR,,0.08,WeatherDisplay:10.37,2013-02-17 03:39:00,
2013-02-16 19:45:00,39.9,35.2,29.21,WSW,248,0.5,0.5,83,0.00,CLR,,0.08,WeatherDisplay:10.37,2013-02-17 03:45:00,
2013-02-16 19:50:00,39.9,35.5,29.21,WNW,292,1.2,2.0,84,0.00,CLR,,0.08,WeatherDisplay:10.37,2013-02-17 03:50:00,
2013-02-16 19:55:00,39.9,35.5,29.21,NNW,338,4.6,4.6,84,0.00,CLR,,0.08,WeatherDisplay:10.37,2013-02-17 03:55:00,
2013-02-16 20:00:00,39.9,35.5,29.21,West,270,3.5,3.5,84,0.00,CLR,,0.08,WeatherDisplay:10.37,2013-02-17 04:00:00,
2013-02-16 20:05:00,39.9,35.5,29.21,WNW,292,1.2,1.2,84,0.00,CLR,,0.08,WeatherDisplay:10.37,2013-02-17 04:05:00,
2013-02-16 20:10:00,39.9,35.5,29.21,West,270,3.5,3.5,84,0.00,CLR,,0.08,WeatherDisplay:10.37,2013-02-17 04:10:00,
2013-02-16 20:15:00,39.7,35.3,29.22,NNW,338,2.3,2.3,84,0.00,CLR,,0.08,WeatherDisplay:10.37,2013-02-17 04:15:00,
2013-02-16 20:20:00,39.7,35.6,29.22,West,270,2.4,2.4,85,0.00,CLR,,0.08,WeatherDisplay:10.37,2013-02-17 04:20:00,
2013-02-16 20:25:00,39.6,35.4,29.22,West,270,2.3,2.3,85,0.00,CLR,,0.08,WeatherDisplay:10.37,2013-02-17 04:25:00,
2013-02-16 20:30:00,39.6,35.1,29.22,WNW,292,0.0,0.5,84,0.00,CLR,,0.08,WeatherDisplay:10.37,2013-02-17 04:30:00,
2013-02-16 20:35:00,39.6,35.1,29.22,West,270,0.0,0.0,84,0.00,CLR,,0.08,WeatherDisplay:10.37,2013-02-17 04:35:00,
2013-02-16 20:40:00,39.6,35.1,29.22,ESE,112,0.0,0.0,84,0.00,CLR,,0.08,WeatherDisplay:10.37,2013-02-17 04:40:00,
2013-02-16 20:45:00,39.6,35.4,29.21,NW,315,0.0,0.0,85,0.00,CLR,,0.08,WeatherDisplay:10.37,2013-02-17 04:45:00,
2013-02-16 20:50:00,39.6,35.4,29.22,SW,225,1.2,1.2,85,0.00,CLR,,0.08,WeatherDisplay:10.37,2013-02-17 04:50:00,
2013-02-16 20:55:00,39.6,35.7,29.22,WSW,248,2.3,2.3,86,0.00,CLR,,0.08,WeatherDisplay:10.37,2013-02-17 04:55:00,
2013-02-16 21:00:00,39.4,35.5,29.22,WSW,248,1.2,1.2,86,0.00,CLR,,0.08,WeatherDisplay:10.37,2013-02-17 05:00:00,
2013-02-16 21:05:00,39.4,35.5,29.22,WSW,248,2.3,0.0,86,0.00,CLR,,0.08,WeatherDisplay:10.37,2013-02-17 05:05:00,
2013-02-16 21:10:00,39.4,35.5,29.22,WNW,292,1.2,1.2,86,0.00,CLR,,0.08,WeatherDisplay:10.37,2013-02-17 05:10:00,
2013-02-16 21:15:00,39.2,35.7,29.22,West,270,1.4,1.4,87,0.00,CLR,,0.08,WeatherDisplay:10.37,2013-02-17 05:15:00,
2013-02-16 21:20:00,39.2,35.7,29.22,WNW,292,1.2,1.2,87,0.00,CLR,,0.08,WeatherDisplay:10.37,2013-02-17 05:20:00,
2013-02-16 21:25:00,39.2,35.7,29.22,West,270,2.3,2.3,87,0.00,CLR,,0.08,WeatherDisplay:10.37,2013-02-17 05:25:00,
2013-02-16 21:30:00,39.0,35.5,29.22,West,270,1.2,1.2,87,0.00,CLR,,0.08,WeatherDisplay:10.37,2013-02-17 05:30:00,
2013-02-16 21:35:00,39.0,35.5,29.22,NW,315,0.0,0.2,87,0.00,CLR,,0.08,WeatherDisplay:10.37,2013-02-17 05:35:00,
2013-02-16 21:40:00,38.8,35.3,29.22,West,270,0.5,0.5,87,0.00,CLR,,0.08,WeatherDisplay:10.37,2013-02-17 05:40:00,
2013-02-16 21:45:00,38.7,35.1,29.22,West,270,1.4,1.4,87,0.00,CLR,,0.08,WeatherDisplay:10.37,2013-02-17 05:45:00,
2013-02-16 21:50:00,38.3,34.8,29.22,West,270,1.6,1.6,87,0.00,CLR,,0.08,WeatherDisplay:10.37,2013-02-17 05:50:00,
2013-02-16 21:55:00,37.8,34.2,29.22,WNW,292,0.7,0.7,87,0.00,CLR,,0.08,WeatherDisplay:10.37,2013-02-17 05:55:00,
2013-02-16 22:00:00,37.8,34.2,29.22,WNW,292,1.2,1.2,87,0.00,CLR,,0.08,WeatherDisplay:10.37,2013-02-17 06:00:00,
2013-02-16 22:05:00,37.4,33.9,29.22,NW,315,0.0,0.0,87,0.00,CLR,,0.08,WeatherDisplay:10.37,2013-02-17 06:05:00,
2013-02-16 22:10:00,37.2,34.0,29.22,WNW,292,0.0,0.0,88,0.00,CLR,,0.08,WeatherDisplay:10.37,2013-02-17 06:10:00,
2013-02-16 22:15:00,37.0,33.5,29.22,WSW,248,1.2,0.0,87,0.00,CLR,,0.08,WeatherDisplay:10.37,2013-02-17 06:15:00,
2013-02-16 22:20:00,37.0,33.5,29.22,WNW,292,1.2,0.0,87,0.00,CLR,,0.08,WeatherDisplay:10.37,2013-02-17 06:20:00,
2013-02-16 22:25:00,37.0,33.8,29.22,WSW,248,0.0,0.0,88,0.00,CLR,,0.08,WeatherDisplay:10.37,2013-02-17 06:25:00,
2013-02-16 22:30:00,37.0,33.8,29.22,WSW,248,2.3,2.3,88,0.00,CLR,,0.08,WeatherDisplay:10.37,2013-02-17 06:30:00,
2013-02-16 22:35:00,37.2,34.0,29.23,WSW,248,0.0,0.0,88,0.00,CLR,,0.08,WeatherDisplay:10.37,2013-02-17 06:35:00,
2013-02-16 22:40:00,37.4,34.5,29.23,SSE,158,0.0,0.0,89,0.00,CLR,,0.08,WeatherDisplay:10.37,2013-02-17 06:40:00,
2013-02-16 22:45:00,37.6,34.9,29.23,West,270,1.8,1.8,90,0.00,CLR,,0.08,WeatherDisplay:10.37,2013-02-17 06:45:00,
2013-02-16 22:50:00,37.8,35.1,29.23,West,270,1.2,3.3,90,0.01,RA,,0.09,WeatherDisplay:10.37,2013-02-17 06:50:00,
2013-02-16 22:55:00,37.9,35.3,29.22,NW,315,1.2,1.2,90,0.02,RA,,0.10,WeatherDisplay:10.37,2013-02-17 06:55:00,
2013-02-16 23:00:00,37.9,35.3,29.22,WSW,248,0.5,0.5,90,0.02,RA,,0.10,WeatherDisplay:10.37,2013-02-17 07:00:00,
2013-02-16 23:05:00,37.9,35.3,29.22,SSW,202,2.3,2.3,90,0.02,CLR,,0.10,WeatherDisplay:10.37,2013-02-17 07:05:00,
2013-02-16 23:10:00,37.8,35.1,29.22,North,0,1.2,1.2,90,0.02,CLR,,0.10,WeatherDisplay:10.37,2013-02-17 07:10:00,
2013-02-16 23:15:00,37.8,35.1,29.22,WSW,248,1.2,1.2,90,0.02,CLR,,0.10,WeatherDisplay:10.37,2013-02-17 07:15:00,
2013-02-16 23:20:00,37.6,34.9,29.22,ENE,68,1.2,1.2,90,0.02,CLR,,0.10,WeatherDisplay:10.37,2013-02-17 07:20:00,
2013-02-16 23:25:00,37.2,34.3,29.21,WSW,248,1.2,0.0,89,0.02,CLR,,0.10,WeatherDisplay:10.37,2013-02-17 07:25:00,
2013-02-16 23:30:00,36.9,33.6,29.22,ESE,112,0.0,0.0,88,0.02,CLR,,0.10,WeatherDisplay:10.37,2013-02-17 07:30:00,
2013-02-16 23:35:00,36.5,33.3,29.22,NW,315,1.6,1.6,88,0.02,CLR,,0.10,WeatherDisplay:10.37,2013-02-17 07:35:00,
2013-02-16 23:40:00,36.3,33.1,29.22,SW,225,0.0,0.0,88,0.02,CLR,,0.10,WeatherDisplay:10.37,2013-02-17 07:40:00,
2013-02-16 23:45:00,36.0,32.8,29.22,WSW,248,1.2,1.2,88,0.02,CLR,,0.10,WeatherDisplay:10.37,2013-02-17 07:45:00,
2013-02-16 23:50:00,35.8,32.9,29.22,SSE,158,0.0,0.0,89,0.01,CLR,,0.10,WeatherDisplay:10.37,2013-02-17 07:50:00,
2013-02-16 23:55:00,35.6,32.7,29.22,SE,135,0.0,0.0,89,0.00,CLR,,0.10,WeatherDisplay:10.37,2013-02-17 07:55:00,